TimeMST,TemperatureF,Dew PointF,Humidity,Sea Level PressureIn,VisibilityMPH,Wind Direction,Wind SpeedMPH,Gust SpeedMPH,PrecipitationIn,Events,Conditions,WindDirDegrees,DateUTC
12:00 AM,28.4,26.6,93,29.69,0.5,Calm,Calm,-,N/A,Fog,Light Freezing Fog,0,2013-02-09 07:00:00
12:08 AM,28.4,26.6,93,29.69,0.8,Calm,Calm,-,N/A,,Overcast,0,2013-02-09 07:08:00
12:11 AM,28.4,26.6,93,29.69,1.0,Calm,Calm,-,N/A,,Overcast,0,2013-02-09 07:11:00
12:16 AM,28.4,26.6,93,29.68,2.0,North,5.8,-,N/A,,Overcast,10,2013-02-09 07:16:00
12:22 AM,28.4,26.6,93,29.68,8.0,North,5.8,-,N/A,,Overcast,360,2013-02-09 07:22:00
12:53 AM,26.1,24.1,92,29.68,10.0,West,9.2,-,N/A,,Mostly Cloudy,270,2013-02-09 07:53:00
1:02 AM,26.6,26.6,100,29.69,9.0,West,5.8,-,N/A,,Mostly Cloudy,270,2013-02-09 08:02:00
1:33 AM,26.6,24.8,93,29.68,1.2,Calm,Calm,-,N/A,,Overcast,0,2013-02-09 08:33:00
1:35 AM,26.6,24.8,93,29.68,0.8,Calm,Calm,-,N/A,,Overcast,0,2013-02-09 08:35:00
1:42 AM,24.8,23.0,93,29.68,0.5,Calm,Calm,-,N/A,Fog,Light Freezing Fog,0,2013-02-09 08:42:00
1:53 AM,26.1,24.1,92,29.66,0.2,NE,3.5,-,N/A,Fog,Light Freezing Fog,40,2013-02-09 08:53:00
2:26 AM,24.8,21.2,86,29.66,0.5,ESE,6.9,-,N/A,Fog,Light Freezing Fog,120,2013-02-09 09:26:00
2:34 AM,26.6,24.8,93,29.65,0.5,Calm,Calm,-,N/A,Fog,Light Freezing Fog,0,2013-02-09 09:34:00
2:53 AM,26.1,25.0,96,29.64,1.2,NNE,4.6,-,N/A,,Overcast,30,2013-02-09 09:53:00
2:58 AM,26.6,24.8,93,29.64,1.2,NNE,3.5,-,N/A,,Overcast,30,2013-02-09 09:58:00
3:06 AM,26.6,24.8,93,29.65,2.0,Calm,Calm,-,N/A,,Overcast,0,2013-02-09 10:06:00
3:17 AM,26.6,24.8,93,29.64,3.0,Calm,Calm,-,N/A,,Overcast,0,2013-02-09 10:17:00
3:53 AM,25.0,24.1,96,29.64,2.0,Calm,Calm,-,N/A,,Overcast,0,2013-02-09 10:53:00
4:03 AM,26.6,23.0,86,29.64,5.0,East,4.6,-,N/A,,Overcast,100,2013-02-09 11:03:00
4:16 AM,26.6,24.8,93,29.64,7.0,Calm,Calm,-,N/A,,Overcast,0,2013-02-09 11:16:00
4:24 AM,26.6,24.8,93,29.64,5.0,North,3.5,-,0.00,Snow,Light Snow,10,2013-02-09 11:24:00
4:53 AM,27.0,24.1,89,29.63,5.0,NNW,6.9,-,0.00,Snow,Light Snow,340,2013-02-09 11:53:00
5:23 AM,26.6,23.0,86,29.63,1.8,West,13.8,-,0.00,Snow,Light Snow,280,2013-02-09 12:23:00
5:29 AM,26.6,23.0,86,29.63,1.0,West,13.8,-,0.01,Snow,Light Snow,270,2013-02-09 12:29:00
5:40 AM,26.6,23.0,86,29.63,1.2,West,9.2,-,0.01,Snow,Light Snow,270,2013-02-09 12:40:00
5:50 AM,26.6,23.0,86,29.62,2.5,WNW,8.1,-,0.01,Snow,Light Snow,290,2013-02-09 12:50:00
5:53 AM,26.1,23.0,88,29.61,3.0,WNW,6.9,-,0.01,Snow,Light Snow,290,2013-02-09 12:53:00
6:04 AM,26.6,21.2,80,29.62,9.0,West,5.8,-,0.00,,Overcast,280,2013-02-09 13:04:00
6:16 AM,26.6,21.2,80,29.63,10.0,WSW,6.9,-,0.00,,Overcast,250,2013-02-09 13:16:00
6:41 AM,26.6,23.0,86,29.63,1.8,Calm,Calm,-,0.00,Snow,Light Snow,0,2013-02-09 13:41:00
6:53 AM,26.1,24.1,92,29.64,0.8,Calm,Calm,-,0.00,Snow,Light Snow,0,2013-02-09 13:53:00
6:57 AM,26.6,24.8,93,29.62,1.0,Calm,Calm,-,0.01,Snow,Light Snow,0,2013-02-09 13:57:00
7:15 AM,26.6,24.8,93,29.61,0.8,Calm,Calm,-,0.02,Snow,Light Snow,0,2013-02-09 14:15:00
7:28 AM,26.6,24.8,93,29.61,0.2,Calm,Calm,-,0.03,Fog-Snow,Heavy Snow,0,2013-02-09 14:28:00
7:46 AM,24.8,24.8,100,29.62,1.2,Calm,Calm,-,0.03,Snow,Light Snow,0,2013-02-09 14:46:00
7:51 AM,26.6,24.8,93,29.61,2.0,Calm,Calm,-,0.03,Snow,Light Snow,0,2013-02-09 14:51:00
7:53 AM,26.1,24.1,92,29.63,2.0,Calm,Calm,-,0.03,Snow,Light Snow,0,2013-02-09 14:53:00
8:19 AM,24.8,24.8,100,29.62,1.0,Calm,Calm,-,0.00,Snow,Light Snow,0,2013-02-09 15:19:00
8:28 AM,26.6,24.8,93,29.62,0.5,Calm,Calm,-,0.01,Fog-Snow,Snow,0,2013-02-09 15:28:00
8:38 AM,26.6,24.8,93,29.63,0.5,SSW,4.6,-,0.01,Fog-Snow,Snow,200,2013-02-09 15:38:00
8:53 AM,25.0,23.0,92,29.66,0.8,SW,6.9,-,0.02,Snow,Light Snow,230,2013-02-09 15:53:00
9:30 AM,26.6,24.8,93,29.61,1.2,Calm,Calm,-,0.01,Snow,Light Snow,0,2013-02-09 16:30:00
9:53 AM,25.0,23.0,92,29.67,2.0,South,4.6,-,0.01,Snow,Light Snow,180,2013-02-09 16:53:00
10:04 AM,24.8,21.2,86,29.62,4.0,Calm,Calm,-,0.00,Snow,Light Snow,0,2013-02-09 17:04:00
10:53 AM,26.1,21.9,84,29.68,10.0,NNE,3.5,-,0.00,,Overcast,20,2013-02-09 17:53:00
11:16 AM,26.6,21.2,80,29.63,2.5,NE,4.6,-,0.00,Snow,Light Snow,50,2013-02-09 18:16:00
11:31 AM,26.6,23.0,86,29.62,4.0,ENE,4.6,-,0.00,Snow,Light Snow,60,2013-02-09 18:31:00
11:53 AM,27.0,21.9,81,29.65,4.0,Variable,4.6,-,0.00,Snow,Light Snow,0,2013-02-09 18:53:00
12:20 PM,26.6,21.2,80,29.61,10.0,Calm,Calm,-,0.00,,Mostly Cloudy,0,2013-02-09 19:20:00
12:53 PM,28.0,21.0,75,29.65,10.0,Calm,Calm,-,0.00,,Overcast,0,2013-02-09 19:53:00
1:53 PM,28.0,23.0,81,29.64,10.0,NE,5.8,-,N/A,,Mostly Cloudy,50,2013-02-09 20:53:00
2:53 PM,30.0,21.0,69,29.63,10.0,South,4.6,-,N/A,,Overcast,170,2013-02-09 21:53:00
3:53 PM,28.9,19.0,67,29.64,10.0,NE,4.6,-,N/A,,Partly Cloudy,40,2013-02-09 22:53:00
4:53 PM,26.1,19.0,75,29.64,10.0,Calm,Calm,-,N/A,,Clear,0,2013-02-09 23:53:00
5:53 PM,16.0,12.0,84,29.71,10.0,West,3.5,-,N/A,,Partly Cloudy,280,2013-02-10 00:53:00
6:53 PM,12.0,10.0,92,29.74,10.0,Calm,Calm,-,N/A,,Clear,0,2013-02-10 01:53:00
7:53 PM,9.0,6.1,88,29.77,10.0,NE,8.1,-,N/A,,Clear,40,2013-02-10 02:53:00
8:53 PM,10.9,7.0,84,29.80,10.0,NE,3.5,-,N/A,,Mostly Cloudy,50,2013-02-10 03:53:00
9:53 PM,14.0,10.0,84,29.78,10.0,Calm,Calm,-,0.00,,Overcast,0,2013-02-10 04:53:00
10:48 PM,14.0,10.4,86,29.69,10.0,Calm,Calm,-,N/A,,Overcast,0,2013-02-10 05:48:00
10:53 PM,14.0,10.0,84,29.80,10.0,ENE,3.5,-,N/A,,Overcast,60,2013-02-10 05:53:00
11:53 PM,16.0,12.9,88,29.81,9.0,Calm,Calm,-,0.00,Snow,Light Snow,0,2013-02-10 06:53:00